Location: �quirre
(50.4736°N, 2.2351°E)
Time: 05:15:55
(UTC+00:00)

H-2A R/B - Pass Details

Date: 07 August 2020
Orbit: 578 x 654 km, 98.5° (Epoch: 19 September)

Event Time Altitude Azimuth Distance (km) Brightness Sun altitude
Rises 03:45:04 0° 181° (S) 2,807 5.1 -6.6°
Reaches altitude 10° 03:47:18 10° 188° (S) 1,904 4.2 -6.4°
Maximum altitude 03:51:13 42° 260° (W) 835 2.3 -5.8°
Drops below altitude 10° 03:55:09 10° 333° (NNW) 1,905 4.7 -5.3°
Sets 03:57:24 0° 340° (NNW) 2,809 5.6 -5.0°
